Weather History for Yuma MCAS, AZ

Change the Weather History Date:

Monday, January 28, 2013

  Actual Average Record
Temperature  
Mean Temperature 54 °F 60 °F  
Max Temperature 61 °F 71 °F 84 °F (1986)
Min Temperature 46 °F 48 °F 31 °F (1950)
Degree Days  
Heating Degree Days 11 6  
Month to date heating degree days 255 188  
Since 1 July heating degree days 492 492  
Cooling Degree Days 0 0  
Month to date cooling degree days 3 0  
Year to date cooling degree days 3 0  
Growing Degree Days 3 (Base 50)    
Moisture  
Dew Point 34 °F    
Average Humidity 50    
Maximum Humidity 71    
Minimum Humidity 29    
Precipitation  
Precipitation 0.00 in 0.01 in 0.70 in (1890)
Month to date precipitation 1.02 0.34  
Year to date precipitation 1.02 0.34  
Sea Level Pressure  
Sea Level Pressure 30.03 in    
Wind  
Wind Speed 9 mph (WNW)    
Max Wind Speed 17 mph    
Max Gust Speed 25 mph    
Visibility 10 miles    
Events      
T = Trace of Precipitation, MM = Missing Value Source: NWS Daily Summary

Daily Weather History Graph

Daily Weather History Graph

Search for Another Location

Airport:

Trip Planner

Search our weather history database for the weather conditions in past years. The results will help you decide how hot, cold, wet, or windy it might be!

Date:

Astronomy

Jan. 28, 2013 Rise Set
Actual Time 7:35 AM MST 6:07 PM MST
Civil Twilight 7:09 AM MST 6:33 PM MST
Nautical Twilight 6:39 AM MST 7:03 PM MST
Astronomical Twilight 6:10 AM MST 7:32 PM MST
Moon 7:57 PM MST (1/28) 8:11 AM MST (1/28)
Length of Visible Light 11h 24m
Length of Day
10h 32m
Full, 97% of the Moon is Illuminated
Jan 28
Full
Feb 3
Last Quarter
Feb 10
New
Feb 17
First Quarter
Feb 25
Full

Hourly Weather History & Observations

Time (MST) Temp. Windchill Dew Point Humidity Pressure Visibility Wind Dir Wind Speed Gust Speed Precip Events Conditions
12:55 AM 52.0 °F - 37.9 °F 59% 29.97 in 10.0 mi WNW 9.2 mph - N/A   Scattered Clouds
1:55 AM 52.0 °F - 32.0 °F 47% 29.97 in 10.0 mi WNW 15.0 mph - N/A   Scattered Clouds
2:55 AM 52.0 °F - 32.0 °F 47% 29.98 in 10.0 mi WNW 16.1 mph 25.3 mph N/A   Clear
3:55 AM 51.1 °F - 33.1 °F 50% 29.98 in 10.0 mi NW 12.7 mph 18.4 mph N/A   Clear
4:55 AM 51.1 °F - 34.0 °F 52% 29.98 in 10.0 mi WNW 12.7 mph - N/A   Partly Cloudy
5:55 AM 48.0 °F - 35.1 °F 61% 29.99 in 10.0 mi North 5.8 mph - N/A   Clear
6:55 AM 48.0 °F - 35.1 °F 61% 30.00 in 10.0 mi WNW 6.9 mph - N/A   Clear
7:55 AM 46.9 °F - 35.1 °F 63% 30.01 in 10.0 mi WNW 3.5 mph - N/A   Partly Cloudy
8:55 AM 51.1 °F - 36.0 °F 56% 30.02 in 10.0 mi WNW 13.8 mph 21.9 mph N/A   Clear
9:55 AM 54.0 °F - 37.0 °F 53% 30.03 in 10.0 mi WNW 13.8 mph 20.7 mph N/A   Clear
10:55 AM 55.9 °F - 34.0 °F 44% 30.06 in 10.0 mi WNW 15.0 mph - N/A   Partly Cloudy
11:55 AM 57.9 °F - 35.1 °F 42% 30.06 in 10.0 mi WNW 11.5 mph 20.7 mph N/A   Partly Cloudy
12:55 PM 60.1 °F - 33.1 °F 36% 30.05 in 10.0 mi WNW 11.5 mph 18.4 mph N/A   Scattered Clouds
1:55 PM 60.1 °F - 32.0 °F 35% 30.04 in 10.0 mi West 16.1 mph - N/A   Mostly Cloudy
2:55 PM 60.1 °F - 30.0 °F 32% 30.02 in 10.0 mi WNW 10.4 mph - N/A   Mostly Cloudy
3:55 PM 60.1 °F - 28.0 °F 30% 30.02 in 10.0 mi NW 10.4 mph - N/A   Mostly Cloudy
4:55 PM 59.0 °F - 28.0 °F 31% 30.02 in 10.0 mi NW 10.4 mph - N/A   Mostly Cloudy
5:55 PM 55.9 °F - 32.0 °F 40% 30.04 in 10.0 mi NNE 8.1 mph - N/A   Mostly Cloudy
6:55 PM 55.0 °F - 34.0 °F 45% 30.06 in 10.0 mi Calm Calm - N/A   Mostly Cloudy
7:55 PM 54.0 °F - 32.0 °F 43% 30.06 in 10.0 mi WSW 4.6 mph - N/A   Scattered Clouds
8:55 PM 51.1 °F - 36.0 °F 56% 30.07 in 10.0 mi WSW 3.5 mph - N/A   Partly Cloudy
9:55 PM 48.0 °F - 39.0 °F 71% 30.08 in 10.0 mi Calm Calm - N/A   Clear
10:55 PM 48.0 °F - 36.0 °F 63% 30.09 in 10.0 mi WNW 6.9 mph - N/A   Clear
11:55 PM 46.0 °F 43.1 °F 36.0 °F 68% 30.11 in 10.0 mi WNW 5.8 mph - N/A   Scattered Clouds